Terminal Aerodrome Forecast
Issued by NWS Salt Lake City, UT

Home | Current Version | Previous Version | Text Only | Print | Product List | Glossary On
Versions: 1 2 3 4 5 6 7 8 9 10 11 12 13 14 15 16 17 18 19 20 21 22 23 24 25 26 27 28 29 30 31 32 33 34 35 36 37 38 39 40 41 42 43 44 45 46 47 48 49 50
000
FTUS45 KSLC 252332
TAFSLC
TAF
KSLC 252332Z 2600/2706 35006KT 2SM -SN BR SCT007 BKN015
     FM260500 03005KT P6SM VCSH FEW040 OVC050
     FM261500 35008KT P6SM SCT040 BKN080
     FM270300 33004KT P6SM SCT070 SCT120=

USA.gov is the U.S. government's official web portal to all federal, state and local government web resources and services.